EW7304 Weather Reports


Display with metric or nautical units.
time (UTC)temp
F
wind
direction
speed
MPH
gust
MPH
rain 1hr
in
rain 24hr
in
rain mn
in
humidity
%
barometer
mb
20210723200004 93 243 0.0 6.0 0.00 0.00 0.00 67 1019.4
20210723194501 94 231 0.0 5.0 0.00 0.00 0.00 65 1019.5
20210723193128 93 233 1.0 8.0 0.00 0.00 0.00 63 1019.6
20210723191710 94 210 0.0 5.0 0.00 0.00 0.00 62 1019.7
20210723190230 93 227 0.0 6.0 0.00 0.00 0.00 63 1019.9
20210723184657 93 248 1.0 4.0 0.00 0.00 0.00 63 1020.1
20210723183122 94 228 0.0 5.0 0.00 0.00 0.00 65 1020.3
20210723181555 93 211 1.0 6.0 0.00 0.00 0.00 63 1020.5
20210723180100 92 220 2.0 5.0 0.00 0.00 0.00 65 1020.6
20210723174631 92 218 1.0 3.0 0.00 0.00 0.00 67 1020.7
20210723173052 91 239 0.0 3.0 0.00 0.00 0.00 71 1020.8
20210723171603 90 224 0.0 4.0 0.00 0.00 0.00 71 1021.0
20210723170053 90 164 0.0 5.0 0.00 0.00 0.00 73 1021.1
20210723164551 90 231 1.0 5.0 0.00 0.00 0.00 72 1021.2
20210723163058 90 226 0.0 5.0 0.00 0.00 0.00 72 1021.3
20210723161628 89 259 0.0 5.0 0.00 0.00 0.00 74 1021.4
20210723160124 89 234 0.0 3.0 0.00 0.00 0.00 75 1021.4
20210723154618 89 217 1.0 5.0 0.00 0.00 0.00 74 1021.3
20210723153109 89 226 0.0 3.0 0.00 0.00 0.00 75 1021.4
20210723151538 88 224 1.0 7.0 0.00 0.00 0.00 75 1021.4
20210723150044 88 217 2.0 6.0 0.00 0.00 0.00 77 1021.5
20210723144528 87 210 0.0 4.0 0.00 0.00 0.00 79 1021.5
20210723143036 87 226 1.0 4.0 0.00 0.00 0.00 81 1021.6
20210723141555 85 232 0.0 5.0 0.00 0.00 0.00 84 1021.6
20210723140021 84 233 1.0 5.0 0.00 0.00 0.00 85 1021.7
20210723134544 84 235 0.0 3.0 0.00 0.00 0.00 87 1021.6
20210723133006 83 226 0.0 2.0 0.00 0.00 0.00 89 1021.5
20210723131504 82 219 1.0 3.0 0.00 0.00 0.00 89 1021.4
20210723130002 81 232 0.0 2.0 0.00 0.00 0.00 91 1021.4
20210723124750 81 226 0.0 2.0 0.00 0.00 0.00 92 1021.2
20210723123143 80 222 0.0 1.0 0.00 0.00 0.00 94 1021.1
20210723121723 79 229 0.0 1.0 0.00 0.00 0.00 95 1021.0
20210723120255 79 229 0.0 0.0 0.00 0.00 0.00 95 1020.9
20210723114716 79 229 0.0 0.0 0.00 0.00 0.00 94 1020.7
20210723113148 79 229 0.0 0.0 0.00 0.00 0.00 94 1020.6
20210723111627 79 229 0.0 0.0 0.00 0.00 0.00 94 1020.4
20210723110144 79 229 0.0 0.0 0.00 0.00 0.00 94 1020.4
20210723104649 79 229 0.0 1.0 0.00 0.00 0.00 94 1020.4
20210723103200 79 229 0.0 0.0 0.00 0.00 0.00 93 1020.4
20210723101638 80 229 0.0 0.0 0.00 0.00 0.00 93 1020.5
20210723100115 80 229 0.0 1.0 0.00 0.00 0.00 93 1020.3
20210723094634 80 229 0.0 1.0 0.00 0.00 0.00 93 1020.1
20210723093049 80 226 0.0 1.0 0.00 0.00 0.00 92 1020.1
20210723091621 80 226 0.0 1.0 0.00 0.00 0.00 92 1020.1
20210723090129 80 234 0.0 2.0 0.00 0.00 0.00 92 1020.2
20210723084621 80 221 0.0 1.0 0.00 0.00 0.00 92 1020.1
20210723083050 80 223 0.0 0.0 0.00 0.00 0.00 91 1020.2
20210723081610 80 224 0.0 1.0 0.00 0.00 0.00 91 1020.1
20210723080149 80 224 0.0 0.0 0.00 0.00 0.00 91 1020.1
20210723074647 80 223 0.0 0.0 0.00 0.00 0.00 90 1020.1
20210723073102 80 223 0.0 1.0 0.00 0.00 0.00 90 1020.1
20210723071628 80 226 0.0 0.0 0.00 0.00 0.00 90 1020.1
20210723070131 81 226 0.0 1.0 0.00 0.00 0.00 90 1020.0
20210723064633 81 236 0.0 0.0 0.00 0.00 0.00 89 1020.0
20210723063047 81 236 0.0 0.0 0.00 0.00 0.00 89 1020.0
20210723061642 81 236 0.0 1.0 0.00 0.00 0.00 89 1019.9
20210723060105 81 238 0.0 1.0 0.00 0.00 0.00 89 1020.1
20210723054531 82 226 0.0 1.0 0.00 0.00 0.00 89 1020.1
20210723053207 82 226 0.0 2.0 0.00 0.00 0.00 88 1020.1
20210723051545 82 231 0.0 1.0 0.00 0.00 0.00 88 1020.1
20210723050044 82 226 0.0 2.0 0.00 0.00 0.00 88 1020.0
20210723044613 82 238 0.0 0.0 0.00 0.00 0.00 88 1020.1
20210723043106 82 223 0.0 2.0 0.00 0.00 0.00 88 1020.0
20210723041609 82 220 0.0 1.0 0.00 0.00 0.00 87 1020.1
20210723040026 82 83 0.0 1.0 0.00 0.00 0.00 87 1020.1
20210723034526 82 226 0.0 1.0 0.00 0.00 0.00 86 1020.2
20210723033022 82 210 0.0 1.0 0.00 0.00 0.00 86 1020.3
20210723031551 83 224 0.0 2.0 0.00 0.00 0.00 86 1020.3
20210723030047 83 223 0.0 2.0 0.00 0.00 0.00 85 1020.4
20210723024529 83 217 0.0 2.0 0.00 0.00 0.00 84 1020.4
20210723023041 83 226 0.0 2.0 0.00 0.00 0.00 83 1020.4
20210723021558 84 229 0.0 2.0 0.00 0.00 0.00 83 1020.3
20210723020050 84 229 0.0 2.0 0.00 0.00 0.00 82 1020.1
20210723014522 84 224 0.0 2.0 0.00 0.00 0.00 81 1020.1
20210723013100 84 215 1.0 4.0 0.00 0.00 0.00 80 1019.8
20210723011520 85 224 0.0 3.0 0.00 0.00 0.00 78 1019.6
20210723010036 85 227 1.0 3.0 0.00 0.00 0.00 77 1019.6
20210723004545 85 200 1.0 5.0 0.00 0.00 0.00 77 1019.6
20210723003010 85 359 1.0 3.0 0.00 0.00 0.00 79 1019.4
20210723001509 85 214 0.0 2.0 0.00 0.00 0.00 78 1019.3
20210723000034 85 221 0.0 3.0 0.00 0.00 0.00 74 1019.2
20210722234508 85 230 0.0 7.0 0.00 0.00 0.00 75 1019.1
20210722233009 88 195 2.0 11.0 0.00 0.00 0.00 76 1018.9
20210722231514 89 198 2.0 5.0 0.00 0.00 0.00 68 1018.9
20210722230006 89 340 1.0 6.0 0.00 0.00 0.00 68 1019.0
20210722224507 89 219 0.0 4.0 0.00 0.00 0.00 67 1019.1
20210722223004 92 321 1.0 5.0 0.00 0.00 0.00 63 1019.0
20210722221512 92 240 1.0 5.0 0.00 0.00 0.00 61 1019.2
20210722220154 91 231 1.0 7.0 0.00 0.00 0.00 64 1019.0
20210722214658 91 220 1.0 5.0 0.00 0.00 0.00 62 1019.0
20210722213152 91 256 1.0 4.0 0.00 0.00 0.00 62 1019.1
20210722211709 91 228 1.0 4.0 0.00 0.00 0.00 64 1019.4
20210722210202 90 213 1.0 4.0 0.00 0.00 0.00 65 1019.5
20210722204649 90 217 1.0 7.0 0.00 0.05 0.00 64 1019.8
20210722203137 91 226 0.0 6.0 0.00 0.05 0.00 61 1019.8
20210722201721 91 240 2.0 6.0 0.00 0.05 0.00 60 1019.8
20210722200311 91 249 1.0 4.0 0.00 0.05 0.00 62 1019.9